Weather History for Miami, FL

Change the Weather History Date:

Monday, December 16, 2013

  Actual Average Record
Temperature  
Mean Temperature 70 °F 70 °F  
Max Temperature 75 °F 78 °F 85 °F (2009)
Min Temperature 64 °F 63 °F 34 °F (1968)
Degree Days  
Heating Degree Days 0 1  
Month to date heating degree days 0 12  
Since 1 July heating degree days 2 15  
Cooling Degree Days 5 6  
Month to date cooling degree days 168 116  
Year to date cooling degree days 4709 4488  
Growing Degree Days 18 (Base 50)    
Moisture  
Dew Point 60 °F    
Average Humidity 74    
Maximum Humidity 87    
Minimum Humidity 61    
Precipitation  
Precipitation 0.00 in 0.06 in 1.04 in (1914)
Month to date precipitation 0.46 1.10  
Year to date precipitation 66.21 60.96  
Snow  
Snow 0.00 in - - ()
Month to date snowfall 0.0  
Since 1 July snowfall 0.0  
Snow Depth 0.00 in    
Sea Level Pressure  
Sea Level Pressure 30.11 in    
Wind  
Wind Speed 7 mph (NNW)    
Max Wind Speed 14 mph    
Max Gust Speed 20 mph    
Visibility 10 miles    
Events      
T = Trace of Precipitation, MM = Missing Value Source: NWS Daily Summary

Daily Weather History Graph

Daily Weather History Graph

Search for Another Location

Airport:

Trip Planner

Search our weather history database for the weather conditions in past years. The results will help you decide how hot, cold, wet, or windy it might be!

Date:

Astronomy

Dec. 16, 2013 Rise Set
Actual Time 7:00 AM EST 5:33 PM EST
Civil Twilight 6:35 AM EST 5:58 PM EST
Nautical Twilight 6:07 AM EST 6:27 PM EST
Astronomical Twilight 5:38 AM EST 6:55 PM EST
Moon 5:17 PM EST (12/16) 6:13 AM EST (12/16)
Length of Visible Light 11h 22m
Length of Day
10h 32m
Full, 100% of the Moon is Illuminated
Dec 16
Full
Dec 17
Full
Dec 25
Last Quarter
Jan 1
New
Jan 7
First Quarter

Hourly Weather History & Observations

Time (EST) Temp. Dew Point Humidity Pressure Visibility Wind Dir Wind Speed Gust Speed Precip Events Conditions
12:53 AM 73.0 °F 70.0 °F 90% 30.06 in 10.0 mi NNW 8.1 mph - N/A   Overcast
1:53 AM 72.0 °F 66.9 °F 84% 30.06 in 10.0 mi NNW 4.6 mph - N/A   Mostly Cloudy
2:53 AM 71.1 °F 64.9 °F 81% 30.05 in 10.0 mi NNW 5.8 mph - N/A   Overcast
3:53 AM 70.0 °F 64.9 °F 84% 30.06 in 10.0 mi NW 4.6 mph - N/A   Overcast
4:53 AM 68.0 °F 63.0 °F 84% 30.06 in 10.0 mi NNW 11.5 mph - N/A   Overcast
5:09 AM 68.0 °F 60.8 °F 78% 30.06 in 10.0 mi NNW 8.1 mph - N/A   Overcast
5:53 AM 66.9 °F 57.9 °F 73% 30.08 in 10.0 mi NNW 9.2 mph - N/A   Overcast
6:53 AM 68.0 °F 57.9 °F 70% 30.10 in 10.0 mi NNW 9.2 mph - N/A   Overcast
7:00 AM 68.0 °F 57.2 °F 68% 30.10 in 10.0 mi North 6.9 mph 16.1 mph N/A   Overcast
7:53 AM 66.9 °F 57.9 °F 73% 30.12 in 10.0 mi NNW 8.1 mph - N/A   Overcast
8:53 AM 66.9 °F 55.9 °F 68% 30.14 in 10.0 mi North 6.9 mph - N/A   Mostly Cloudy
9:53 AM 69.1 °F 57.0 °F 65% 30.15 in 10.0 mi NW 6.9 mph - N/A   Overcast
10:53 AM 71.1 °F 57.9 °F 63% 30.14 in 10.0 mi North 8.1 mph - N/A   Mostly Cloudy
11:53 AM 72.0 °F 57.9 °F 61% 30.13 in 10.0 mi North 8.1 mph - N/A   Overcast
12:53 PM 73.0 °F 59.0 °F 61% 30.10 in 10.0 mi North 8.1 mph - N/A   Overcast
1:53 PM 73.0 °F 59.0 °F 61% 30.08 in 10.0 mi NNW 9.2 mph - N/A   Overcast
2:53 PM 73.0 °F 59.0 °F 61% 30.09 in 10.0 mi Variable 5.8 mph - N/A   Overcast
3:53 PM 73.0 °F 60.1 °F 64% 30.09 in 10.0 mi NNW 5.8 mph - N/A   Mostly Cloudy
4:53 PM 73.0 °F 60.1 °F 64% 30.09 in 10.0 mi NNE 4.6 mph - N/A   Scattered Clouds
5:53 PM 72.0 °F 60.1 °F 66% 30.12 in 10.0 mi Variable 3.5 mph - N/A   Scattered Clouds
6:53 PM 70.0 °F 59.0 °F 68% 30.14 in 10.0 mi NNW 6.9 mph - N/A   Scattered Clouds
7:53 PM 68.0 °F 59.0 °F 73% 30.15 in 10.0 mi NNW 4.6 mph - N/A   Scattered Clouds
8:53 PM 68.0 °F 59.0 °F 73% 30.16 in 10.0 mi North 3.5 mph - N/A   Mostly Cloudy
9:53 PM 66.9 °F 57.9 °F 73% 30.17 in 10.0 mi NNW 6.9 mph - N/A   Scattered Clouds
10:53 PM 64.9 °F 57.9 °F 78% 30.16 in 10.0 mi NW 5.8 mph - N/A   Mostly Cloudy
11:53 PM 64.0 °F 57.9 °F 80% 30.15 in 10.0 mi NNW 6.9 mph - N/A   Scattered Clouds